^^
Your Local Weather - Clay, NY Station Historical Data
Daily Summary for February 26, 2018 Units:  Metric    English   Both
« Previous Day
Next Day »
Daily Weekly Monthly Yearly Custom
  High: Low: Average:
Temperature: 7.9 °C -0.8 °C 3.7 °C
Dew Point: 0.4 °C -5.3 °C -2.4 °C
Humidity: 75% 50% 65%
Wind Speed: 9.7km/h 0km/h 4.2km/h
Wind Gust: 17.7km/h - -
Wind- - West
Pressure: 1024.9 hPa 1015.5 hPa -
Precipitation: 0 mm    
Historical Graphs
 
 
Tabular Data for February 26, 2018
Time Temperature Dew Point Pressure Wind Wind Speed Wind Gust Humidity Rainfall Rate (Hourly) solar
00:16 4.2 °C -0.4 °C 1015.5 hPa WSW 4.8 km/h 9.7 km/h 72% 0 mm 0 W/m2
00:22 4.1 °C -0.5 °C 1015.5 hPa West 3.2 km/h 4.8 km/h 72% 0 mm 0 W/m2
00:28 3.9 °C -0.4 °C 1015.5 hPa WSW 1.6 km/h 6.4 km/h 73% 0 mm 0 W/m2
00:34 3.9 °C -0.5 °C 1015.8 hPa WSW 3.2 km/h 3.2 km/h 73% 0 mm 0 W/m2
00:40 3.8 °C -0.6 °C 1015.8 hPa SW 3.2 km/h 3.2 km/h 73% 0 mm 0 W/m2
00:46 3.8 °C -0.6 °C 1015.8 hPa WSW 3.2 km/h 4.8 km/h 73% 0 mm 0 W/m2
00:52 3.7 °C -0.5 °C 1015.8 hPa WSW 3.2 km/h 8 km/h 74% 0 mm 0 W/m2
00:58 3.7 °C -0.5 °C 1015.8 hPa WNW 4.8 km/h 12.9 km/h 74% 0 mm 0 W/m2
01:04 3.7 °C -0.6 °C 1016.1 hPa WSW 4.8 km/h 6.4 km/h 74% 0 mm 0 W/m2
01:10 3.6 °C -0.6 °C 1016.1 hPa West 3.2 km/h 3.2 km/h 74% 0 mm 0 W/m2
01:16 3.5 °C -0.7 °C 1016.1 hPa SW 3.2 km/h 6.4 km/h 74% 0 mm 0 W/m2
01:22 3.6 °C -0.7 °C 1016.1 hPa WSW 4.8 km/h 6.4 km/h 74% 0 mm 0 W/m2
01:36 3.5 °C -0.9 °C 1016.5 hPa WSW 4.8 km/h 14.5 km/h 73% 0 mm 0 W/m2
01:42 3.5 °C -0.9 °C 1016.1 hPa West 4.8 km/h 9.7 km/h 73% 0 mm 0 W/m2
01:48 3.4 °C -0.9 °C 1016.1 hPa SW 4.8 km/h 9.7 km/h 73% 0 mm 0 W/m2
01:54 3.4 °C -1 °C 1016.1 hPa SW 4.8 km/h 4.8 km/h 73% 0 mm 0 W/m2
02:00 3.4 °C -1.2 °C 1016.5 hPa WSW 4.8 km/h 4.8 km/h 72% 0 mm 0 W/m2
02:06 3.4 °C -1.2 °C 1016.5 hPa WSW 4.8 km/h 14.5 km/h 72% 0 mm 0 W/m2
02:12 3.4 °C -1.2 °C 1016.5 hPa SW 6.4 km/h 12.9 km/h 72% 0 mm 0 W/m2
02:18 3.4 °C -1.2 °C 1016.5 hPa West 6.4 km/h 12.9 km/h 72% 0 mm 0 W/m2
02:26 3.3 °C -1.2 °C 1016.5 hPa West 4.8 km/h 6.4 km/h 72% 0 mm 0 W/m2
02:32 3.3 °C -1.3 °C 1016.5 hPa WSW 4.8 km/h 6.4 km/h 72% 0 mm 0 W/m2
02:38 3.3 °C -1.3 °C 1016.5 hPa WSW 4.8 km/h 6.4 km/h 72% 0 mm 0 W/m2
02:44 3.2 °C -1.3 °C 1016.8 hPa WSW 4.8 km/h 9.7 km/h 72% 0 mm 0 W/m2
02:50 3.2 °C -1.4 °C 1016.8 hPa WSW 6.4 km/h 6.4 km/h 72% 0 mm 0 W/m2
02:56 3.2 °C -1.4 °C 1016.8 hPa WSW 4.8 km/h 8 km/h 72% 0 mm 0 W/m2
03:02 3.1 °C -1.5 °C 1016.8 hPa WSW 3.2 km/h 4.8 km/h 72% 0 mm 0 W/m2
03:08 3.1 °C -1.4 °C 1016.8 hPa WSW 4.8 km/h 4.8 km/h 72% 0 mm 0 W/m2
03:14 3.1 °C -1.4 °C 1016.8 hPa West 4.8 km/h 11.3 km/h 72% 0 mm 0 W/m2
03:20 3.1 °C -1.5 °C 1016.8 hPa WSW 6.4 km/h 6.4 km/h 72% 0 mm 0 W/m2
03:26 3.1 °C -1.5 °C 1016.8 hPa WSW 4.8 km/h 8 km/h 72% 0 mm 0 W/m2
03:32 2.9 °C -1.6 °C 1016.8 hPa WSW 3.2 km/h 3.2 km/h 72% 0 mm 0 W/m2
03:38 2.9 °C -1.7 °C 1016.8 hPa West 3.2 km/h 4.8 km/h 72% 0 mm 0 W/m2
03:46 2.8 °C -1.6 °C 1016.8 hPa SW 3.2 km/h 4.8 km/h 73% 0 mm 0 W/m2
03:52 2.7 °C -1.6 °C 1016.8 hPa WSW 3.2 km/h 3.2 km/h 73% 0 mm 0 W/m2
03:58 2.7 °C -1.6 °C 1016.8 hPa SW 3.2 km/h 4.8 km/h 73% 0 mm 0 W/m2
04:04 2.7 °C -1.7 °C 1016.8 hPa WSW 3.2 km/h 4.8 km/h 73% 0 mm 0 W/m2
04:10 2.6 °C -1.7 °C 1016.8 hPa WSW 3.2 km/h 3.2 km/h 73% 0 mm 0 W/m2
04:16 2.6 °C -1.7 °C 1016.8 hPa SW 3.2 km/h 3.2 km/h 73% 0 mm 0 W/m2
04:24 2.6 °C -1.7 °C 1016.8 hPa West 3.2 km/h 8 km/h 73% 0 mm 0 W/m2
04:30 2.6 °C -1.7 °C 1016.8 hPa West 3.2 km/h 4.8 km/h 73% 0 mm 0 W/m2
04:36 2.5 °C -1.7 °C 1017.2 hPa West 3.2 km/h 4.8 km/h 74% 0 mm 0 W/m2
04:42 2.4 °C -1.7 °C 1017.2 hPa WSW 3.2 km/h 3.2 km/h 74% 0 mm 0 W/m2
04:48 2.5 °C -1.7 °C 1017.5 hPa SW 3.2 km/h 6.4 km/h 74% 0 mm 0 W/m2
04:54 2.6 °C -1.6 °C 1017.5 hPa WSW 3.2 km/h 6.4 km/h 74% 0 mm 0 W/m2
05:00 2.5 °C -1.8 °C 1017.5 hPa WSW 1.6 km/h 4.8 km/h 73% 0 mm 0 W/m2
05:06 2.4 °C -1.8 °C 1017.5 hPa West 1.6 km/h 4.8 km/h 74% 0 mm 0 W/m2
05:12 2.3 °C -1.8 °C 1017.5 hPa WSW 3.2 km/h 4.8 km/h 74% 0 mm 0 W/m2
05:18 2.3 °C -2 °C 1017.5 hPa WSW 3.2 km/h 4.8 km/h 73% 0 mm 0 W/m2
05:24 2.3 °C -2 °C 1017.5 hPa WSW 1.6 km/h 4.8 km/h 73% 0 mm 0 W/m2
05:30 2.3 °C -2 °C 1017.5 hPa WSW 1.6 km/h 3.2 km/h 73% 0 mm 0 W/m2
05:36 2.3 °C -2 °C 1017.8 hPa WSW 3.2 km/h 4.8 km/h 73% 0 mm 0 W/m2
05:42 2.3 °C -2 °C 1017.8 hPa WSW 3.2 km/h 3.2 km/h 73% 0 mm 0 W/m2
05:48 2.2 °C -2.1 °C 1017.8 hPa WSW 3.2 km/h 3.2 km/h 73% 0 mm 0 W/m2
05:54 2.2 °C -2.2 °C 1017.8 hPa WSW 1.6 km/h 3.2 km/h 73% 0 mm 0 W/m2
06:00 2.2 °C -2.2 °C 1017.8 hPa WSW 1.6 km/h 1.6 km/h 73% 0 mm 0 W/m2
06:06 2.2 °C -2.2 °C 1017.8 hPa WSW 3.2 km/h 3.2 km/h 73% 0 mm 0 W/m2
06:12 2.2 °C -2.2 °C 1017.8 hPa WSW 3.2 km/h 3.2 km/h 73% 0 mm 0 W/m2
06:18 2.1 °C -2.2 °C 1017.8 hPa WSW 1.6 km/h 3.2 km/h 73% 0 mm 0 W/m2
06:24 2.1 °C -2.2 °C 1017.8 hPa WSW 1.6 km/h 8 km/h 73% 0 mm 0 W/m2
06:30 2.2 °C -2.4 °C 1018.2 hPa WSW 3.2 km/h 3.2 km/h 72% 0 mm 0 W/m2
06:36 2.2 °C -2.4 °C 1018.5 hPa WSW 3.2 km/h 8 km/h 72% 0 mm 0 W/m2
06:42 2.1 °C -2.4 °C 1018.5 hPa WSW 3.2 km/h 3.2 km/h 72% 0 mm 0 W/m2
06:48 2.1 °C -2.4 °C 1018.5 hPa WSW 1.6 km/h 3.2 km/h 72% 0 mm 0 W/m2
06:54 2.1 °C -2.4 °C 1018.5 hPa WSW 1.6 km/h 3.2 km/h 72% 0 mm 5 W/m2
07:00 2.1 °C -2.4 °C 1018.5 hPa WSW 3.2 km/h 4.8 km/h 72% 0 mm 11 W/m2
07:06 2.1 °C -2.7 °C 1018.5 hPa West 3.2 km/h 4.8 km/h 71% 0 mm 16 W/m2
07:12 2.1 °C -2.7 °C 1018.5 hPa WSW 3.2 km/h 3.2 km/h 71% 0 mm 21 W/m2
07:18 2.1 °C -2.7 °C 1018.8 hPa WSW 3.2 km/h 4.8 km/h 71% 0 mm 25 W/m2
07:24 2.1 °C -2.7 °C 1018.8 hPa WSW 1.6 km/h 3.2 km/h 71% 0 mm 28 W/m2
07:30 2.2 °C -2.6 °C 1018.8 hPa WSW 3.2 km/h 3.2 km/h 71% 0 mm 23 W/m2
07:36 2.2 °C -2.5 °C 1019.2 hPa WSW 3.2 km/h 3.2 km/h 71% 0 mm 30 W/m2
07:42 2.3 °C -2.6 °C 1019.2 hPa WSW 3.2 km/h 3.2 km/h 70% 0 mm 51 W/m2
07:48 2.4 °C -2.5 °C 1018.8 hPa WSW 3.2 km/h 3.2 km/h 70% 0 mm 33 W/m2
07:54 2.6 °C -2.5 °C 1019.2 hPa West 3.2 km/h 4.8 km/h 69% 0 mm 46 W/m2
08:00 2.8 °C -2.3 °C 1019.2 hPa West 3.2 km/h 3.2 km/h 69% 0 mm 107 W/m2
08:06 3 °C -2.3 °C 1019.2 hPa WSW 3.2 km/h 4.8 km/h 68% 0 mm 114 W/m2
08:12 3.3 °C -2.2 °C 1019.5 hPa SW 3.2 km/h 4.8 km/h 67% 0 mm 144 W/m2
08:18 3.6 °C -2.2 °C 1019.5 hPa WSW 4.8 km/h 4.8 km/h 66% 0 mm 132 W/m2
08:24 3.7 °C -2.1 °C 1019.5 hPa WNW 4.8 km/h 6.4 km/h 66% 0 mm 171 W/m2
08:30 3.8 °C -2 °C 1019.5 hPa West 6.4 km/h 16.1 km/h 66% 0 mm 165 W/m2
08:36 3.9 °C -1.8 °C 1019.5 hPa WSW 6.4 km/h 16.1 km/h 66% 0 mm 297 W/m2
08:42 4.1 °C -1.7 °C 1019.5 hPa NW 4.8 km/h 6.4 km/h 66% 0 mm 269 W/m2
08:48 4.3 °C -1.7 °C 1019.5 hPa West 4.8 km/h 8 km/h 65% 0 mm 216 W/m2
08:54 4.4 °C -1.6 °C 1019.5 hPa WNW 4.8 km/h 8 km/h 65% 0 mm 345 W/m2
09:00 4.6 °C -1.6 °C 1019.5 hPa WNW 4.8 km/h 8 km/h 64% 0 mm 211 W/m2
09:06 4.6 °C -1.8 °C 1019.5 hPa West 6.4 km/h 8 km/h 63% 0 mm 308 W/m2
09:12 4.8 °C -1.7 °C 1019.5 hPa West 8 km/h 9.7 km/h 63% 0 mm 292 W/m2
09:18 4.9 °C -1.8 °C 1019.5 hPa West 8 km/h 9.7 km/h 62% 0 mm 429 W/m2
09:24 5.2 °C -1.3 °C 1019.5 hPa West 8 km/h 8 km/h 63% 0 mm 443 W/m2
09:30 5.4 °C -1.5 °C 1019.5 hPa WSW 6.4 km/h 14.5 km/h 61% 0 mm 452 W/m2
09:36 5.2 °C -1.7 °C 1019.5 hPa WSW 6.4 km/h 16.1 km/h 61% 0 mm 469 W/m2
09:42 5.4 °C -1.1 °C 1019.9 hPa West 8 km/h 8 km/h 63% 0 mm 485 W/m2
09:48 5.4 °C -1.3 °C 1019.9 hPa WSW 6.4 km/h 9.7 km/h 62% 0 mm 504 W/m2
09:54 5.7 °C -1 °C 1019.9 hPa West 6.4 km/h 11.3 km/h 62% 0 mm 545 W/m2
10:00 5.8 °C -1.2 °C 1019.9 hPa SW 8 km/h 11.3 km/h 61% 0 mm 541 W/m2
10:06 5.8 °C -1.2 °C 1019.9 hPa WNW 9.7 km/h 11.3 km/h 61% 0 mm 503 W/m2
10:12 6.1 °C -1.1 °C 1019.9 hPa West 8 km/h 8 km/h 60% 0 mm 571 W/m2
10:18 5.8 °C -1.2 °C 1019.9 hPa West 8 km/h 14.5 km/h 61% 0 mm 575 W/m2
10:24 5.8 °C -1.6 °C 1019.9 hPa West 8 km/h 9.7 km/h 59% 0 mm 487 W/m2
10:30 6 °C -1.7 °C 1019.9 hPa WNW 8 km/h 8 km/h 58% 0 mm 599 W/m2
10:36 6.1 °C -1.6 °C 1019.9 hPa NW 8 km/h 11.3 km/h 58% 0 mm 598 W/m2
10:42 6.1 °C -1.4 °C 1019.9 hPa WSW 8 km/h 14.5 km/h 59% 0 mm 612 W/m2
10:48 6.3 °C -1.4 °C 1019.9 hPa WNW 8 km/h 14.5 km/h 58% 0 mm 633 W/m2
10:54 6.4 °C -1 °C 1019.9 hPa WNW 8 km/h 8 km/h 59% 0 mm 679 W/m2
11:00 6.8 °C -0.4 °C 1019.9 hPa West 8 km/h 12.9 km/h 60% 0 mm 719 W/m2
11:06 6.3 °C -1.4 °C 1019.9 hPa NW 8 km/h 17.7 km/h 58% 0 mm 708 W/m2
11:12 6.2 °C -1.3 °C 1019.9 hPa NW 8 km/h 16.1 km/h 59% 0 mm 98 W/m2
11:18 6.6 °C -1.6 °C 1020.2 hPa WSW 8 km/h 16.1 km/h 56% 0 mm 802 W/m2
11:24 7.1 °C -0.6 °C 1019.9 hPa West 6.4 km/h 9.7 km/h 58% 0 mm 689 W/m2
11:30 6.9 °C -1 °C 1019.9 hPa NW 8 km/h 8 km/h 57% 0 mm 805 W/m2
11:36 7.2 °C -0.8 °C 1019.9 hPa SW 8 km/h 14.5 km/h 57% 0 mm 842 W/m2
11:42 7.5 °C -1.2 °C 1019.9 hPa West 6.4 km/h 6.4 km/h 54% 0 mm 874 W/m2
11:48 7.3 °C -1.1 °C 1020.2 hPa WNW 8 km/h 14.5 km/h 55% 0 mm 853 W/m2
11:54 7.1 °C 0.3 °C 1019.9 hPa NNW 6.4 km/h 8 km/h 62% 0 mm 278 W/m2
12:00 6.6 °C -0.7 °C 1020.2 hPa NNW 4.8 km/h 4.8 km/h 60% 0 mm 772 W/m2
12:06 7.1 °C -0.8 °C 1020.2 hPa NW 4.8 km/h 8 km/h 57% 0 mm 169 W/m2
12:12 7.3 °C -0.2 °C 1020.2 hPa NW 4.8 km/h 4.8 km/h 59% 0 mm 705 W/m2
12:18 7.2 °C -0.6 °C 1020.2 hPa West 6.4 km/h 9.7 km/h 58% 0 mm 689 W/m2
12:24 7.3 °C -0.9 °C 1020.2 hPa NW 6.4 km/h 9.7 km/h 56% 0 mm 689 W/m2
12:30 7.3 °C -0.4 °C 1020.2 hPa NW 8 km/h 9.7 km/h 58% 0 mm 701 W/m2
12:36 7.4 °C -0.8 °C 1020.2 hPa WNW 8 km/h 9.7 km/h 56% 0 mm 214 W/m2
12:42 6.7 °C -0.8 °C 1020.2 hPa NNW 8 km/h 16.1 km/h 59% 0 mm 232 W/m2
12:48 6.7 °C -0.1 °C 1020.2 hPa West 9.7 km/h 16.1 km/h 62% 0 mm 733 W/m2
12:54 7.2 °C -0.3 °C 1020.2 hPa NW 8 km/h 12.9 km/h 59% 0 mm 686 W/m2
13:00 7.4 °C -0.1 °C 1020.2 hPa WNW 8 km/h 8 km/h 59% 0 mm 700 W/m2
13:06 7.2 °C -0.5 °C 1020.2 hPa WNW 6.4 km/h 8 km/h 58% 0 mm 652 W/m2
13:12 7.4 °C 0.4 °C 1020.2 hPa North 6.4 km/h 9.7 km/h 61% 0 mm 645 W/m2
13:18 7.7 °C 0.2 °C 1020.2 hPa NW 6.4 km/h 9.7 km/h 59% 0 mm 640 W/m2
13:24 7.4 °C -0.3 °C 1020.2 hPa WNW 6.4 km/h 14.5 km/h 58% 0 mm 635 W/m2
13:30 7.3 °C -0.4 °C 1020.2 hPa WNW 8 km/h 8 km/h 58% 0 mm 622 W/m2
13:36 7.2 °C -1 °C 1020.2 hPa WNW 8 km/h 12.9 km/h 56% 0 mm 615 W/m2
13:42 7.7 °C -0.8 °C 1020.2 hPa WNW 6.4 km/h 6.4 km/h 55% 0 mm 612 W/m2
13:48 7.9 °C -0.3 °C 1020.5 hPa NNW 4.8 km/h 8 km/h 56% 0 mm 605 W/m2
13:54 7.3 °C -0.9 °C 1020.5 hPa WNW 6.4 km/h 11.3 km/h 56% 0 mm 598 W/m2
14:00 7.4 °C -0.8 °C 1020.5 hPa NW 8 km/h 8 km/h 56% 0 mm 587 W/m2
14:06 7.7 °C -0.5 °C 1020.5 hPa NW 6.4 km/h 8 km/h 56% 0 mm 577 W/m2
14:12 7.7 °C -0.8 °C 1020.5 hPa WNW 4.8 km/h 4.8 km/h 55% 0 mm 566 W/m2
14:18 7.1 °C -0.8 °C 1020.5 hPa NW 8 km/h 17.7 km/h 57% 0 mm 554 W/m2
14:24 7.2 °C -1.1 °C 1020.5 hPa WNW 9.7 km/h 12.9 km/h 56% 0 mm 541 W/m2
14:30 7.2 °C -1.3 °C 1020.5 hPa NNW 8 km/h 8 km/h 55% 0 mm 534 W/m2
14:36 7.5 °C -0.7 °C 1020.5 hPa NW 6.4 km/h 9.7 km/h 56% 0 mm 522 W/m2
14:42 7.3 °C -1.4 °C 1020.5 hPa NW 6.4 km/h 6.4 km/h 54% 0 mm 508 W/m2
14:48 7.3 °C -0.9 °C 1020.5 hPa NW 8 km/h 11.3 km/h 56% 0 mm 494 W/m2
14:54 7.2 °C -1.6 °C 1020.5 hPa WNW 8 km/h 8 km/h 54% 0 mm 485 W/m2
15:00 7 °C -1.7 °C 1020.5 hPa WNW 8 km/h 8 km/h 54% 0 mm 473 W/m2
15:06 7.2 °C -2.3 °C 1020.5 hPa NW 8 km/h 11.3 km/h 51% 0 mm 459 W/m2
15:14 6.9 °C -2.6 °C 1020.5 hPa NNW 8 km/h 16.1 km/h 51% 0 mm 441 W/m2
15:20 6.8 °C -2.1 °C 1020.9 hPa West 8 km/h 8 km/h 53% 0 mm 422 W/m2
15:26 7.1 °C -2.1 °C 1020.9 hPa NW 6.4 km/h 9.7 km/h 52% 0 mm 410 W/m2
15:32 6.9 °C -2.8 °C 1020.9 hPa WNW 6.4 km/h 8 km/h 50% 0 mm 394 W/m2
15:38 6.4 °C -3 °C 1020.9 hPa NNE 8 km/h 17.7 km/h 51% 0 mm 378 W/m2
15:44 6.2 °C -2.9 °C 1020.9 hPa NNW 9.7 km/h 14.5 km/h 52% 0 mm 364 W/m2
15:56 6.1 °C -3.1 °C 1021.2 hPa NW 8 km/h 17.7 km/h 52% 0 mm 329 W/m2
16:02 6.1 °C -3.1 °C 1021.2 hPa West 8 km/h 11.3 km/h 52% 0 mm 309 W/m2
16:08 5.9 °C -3.4 °C 1021.2 hPa WNW 8 km/h 11.3 km/h 51% 0 mm 294 W/m2
16:14 5.9 °C -3.2 °C 1021.2 hPa West 8 km/h 8 km/h 52% 0 mm 274 W/m2
16:26 5.8 °C -3.6 °C 1021.2 hPa WNW 6.4 km/h 8 km/h 51% 0 mm 243 W/m2
16:32 5.5 °C -3.8 °C 1021.2 hPa WNW 8 km/h 12.9 km/h 51% 0 mm 221 W/m2
16:38 5.3 °C -3.8 °C 1021.2 hPa NW 8 km/h 12.9 km/h 52% 0 mm 32 W/m2
16:44 5.2 °C -4.2 °C 1021.2 hPa NW 8 km/h 11.3 km/h 51% 0 mm 30 W/m2
16:50 5.1 °C -4 °C 1021.6 hPa WNW 8 km/h 8 km/h 52% 0 mm 28 W/m2
16:56 4.9 °C -4.1 °C 1021.6 hPa WNW 6.4 km/h 9.7 km/h 52% 0 mm 26 W/m2
17:02 4.8 °C -4.2 °C 1021.6 hPa NW 6.4 km/h 6.4 km/h 52% 0 mm 25 W/m2
17:08 4.8 °C -4 °C 1021.6 hPa WNW 6.4 km/h 6.4 km/h 53% 0 mm 23 W/m2
17:14 4.7 °C -4.1 °C 1021.6 hPa WNW 4.8 km/h 9.7 km/h 53% 0 mm 21 W/m2
17:20 4.6 °C -3.7 °C 1021.6 hPa NW 4.8 km/h 4.8 km/h 55% 0 mm 19 W/m2
17:26 4.4 °C -3.9 °C 1021.9 hPa WNW 4.8 km/h 8 km/h 55% 0 mm 16 W/m2
17:32 4.3 °C -4 °C 1021.9 hPa WNW 4.8 km/h 4.8 km/h 55% 0 mm 14 W/m2
17:38 4.1 °C -3.9 °C 1021.9 hPa NW 3.2 km/h 6.4 km/h 56% 0 mm 11 W/m2
17:44 4 °C -4 °C 1021.9 hPa West 3.2 km/h 8 km/h 56% 0 mm 7 W/m2
17:50 3.8 °C -4.2 °C 1022.2 hPa West 1.6 km/h 1.6 km/h 56% 0 mm 5 W/m2
17:56 3.7 °C -4.3 °C 1022.2 hPa West 1.6 km/h 3.2 km/h 56% 0 mm 0 W/m2
18:02 3.6 °C -4.2 °C 1022.2 hPa West 1.6 km/h 1.6 km/h 57% 0 mm 0 W/m2
18:08 3.4 °C -4.3 °C 1022.2 hPa Calm   1.6 km/h 57% 0 mm 0 W/m2
18:14 3.4 °C -4.1 °C 1022.2 hPa West 1.6 km/h 3.2 km/h 58% 0 mm 0 W/m2
18:20 3.3 °C -4.2 °C 1022.2 hPa West 1.6 km/h 1.6 km/h 58% 0 mm 0 W/m2
18:26 3.2 °C -4.3 °C 1022.2 hPa West 1.6 km/h 3.2 km/h 58% 0 mm 0 W/m2
18:32 3.2 °C -4.3 °C 1022.6 hPa Calm   3.2 km/h 58% 0 mm 0 W/m2
18:38 3.1 °C -4.4 °C 1022.6 hPa Calm   3.2 km/h 58% 0 mm 0 W/m2
18:44 3 °C -4.2 °C 1022.6 hPa West 1.6 km/h 3.2 km/h 59% 0 mm 0 W/m2
18:50 2.9 °C -4.3 °C 1022.6 hPa Calm     59% 0 mm 0 W/m2
18:56 2.8 °C -4.4 °C 1022.6 hPa Calm     59% 0 mm 0 W/m2
19:02 2.7 °C -4.3 °C 1022.6 hPa Calm     60% 0 mm 0 W/m2
19:08 2.5 °C -4.3 °C 1022.6 hPa Calm     61% 0 mm 0 W/m2
19:16 2.3 °C -4.5 °C 1022.6 hPa Calm   1.6 km/h 61% 0 mm 0 W/m2
19:26 1.9 °C -4.4 °C 1022.9 hPa Calm     63% 0 mm 0 W/m2
19:32 1.8 °C -4.4 °C 1022.9 hPa Calm     63% 0 mm 0 W/m2
19:38 1.7 °C -4.4 °C 1022.9 hPa Calm     64% 0 mm 0 W/m2
19:44 1.7 °C -4.2 °C 1022.9 hPa Calm     65% 0 mm 0 W/m2
19:50 1.6 °C -4.3 °C 1022.9 hPa Calm     65% 0 mm 0 W/m2
19:56 1.4 °C -4.4 °C 1022.9 hPa Calm   3.2 km/h 65% 0 mm 0 W/m2
20:02 1.3 °C -4.4 °C 1022.9 hPa Calm     66% 0 mm 0 W/m2
20:08 1.2 °C -4.5 °C 1023.2 hPa Calm     66% 0 mm 0 W/m2
20:14 1.1 °C -4.4 °C 1022.9 hPa Calm     67% 0 mm 0 W/m2
20:20 0.9 °C -4.6 °C 1022.9 hPa Calm     67% 0 mm 0 W/m2
20:26 0.7 °C -4.6 °C 1023.2 hPa Calm     68% 0 mm 0 W/m2
20:32 0.6 °C -4.7 °C 1023.2 hPa Calm     68% 0 mm 0 W/m2
20:38 0.4 °C -4.7 °C 1023.2 hPa Calm     69% 0 mm 0 W/m2
20:44 0.4 °C -4.4 °C 1023.2 hPa Calm     70% 0 mm 0 W/m2
20:50 0.3 °C -4.5 °C 1023.2 hPa Calm     70% 0 mm 0 W/m2
20:56 0.2 °C -4.6 °C 1023.2 hPa Calm     70% 0 mm 0 W/m2
21:02 0.2 °C -4.5 °C 1023.2 hPa Calm     71% 0 mm 0 W/m2
21:08 0.1 °C -4.6 °C 1023.2 hPa Calm     71% 0 mm 0 W/m2
21:14 -0.1 °C -4.6 °C 1023.2 hPa Calm     72% 0 mm 0 W/m2
21:20 -0.2 °C -4.7 °C 1023.2 hPa Calm     72% 0 mm 0 W/m2
21:26 -0.3 °C -4.8 °C 1023.2 hPa Calm     72% 0 mm 0 W/m2
21:32 -0.5 °C -4.7 °C 1023.2 hPa Calm     73% 0 mm 0 W/m2
21:38 -0.6 °C -4.6 °C 1023.2 hPa Calm     74% 0 mm 0 W/m2
21:44 -0.6 °C -4.7 °C 1023.2 hPa Calm     74% 0 mm 0 W/m2
21:50 -0.6 °C -4.7 °C 1023.6 hPa Calm     74% 0 mm 0 W/m2
21:56 -0.7 °C -4.7 °C 1023.6 hPa Calm     74% 0 mm 0 W/m2
22:02 -0.7 °C -4.8 °C 1023.6 hPa Calm     74% 0 mm 0 W/m2
22:08 -0.8 °C -4.8 °C 1023.6 hPa Calm     74% 0 mm 0 W/m2
22:14 -0.6 °C -4.5 °C 1023.6 hPa Calm     75% 0 mm 0 W/m2
22:20 -0.3 °C -4.2 °C 1023.9 hPa West 1.6 km/h 3.2 km/h 75% 0 mm 0 W/m2
22:26 0.1 °C -4.1 °C 1023.9 hPa West 1.6 km/h 3.2 km/h 74% 0 mm 0 W/m2
22:32 0.3 °C -4.1 °C 1023.9 hPa West 1.6 km/h 1.6 km/h 72% 0 mm 0 W/m2
22:38 0.6 °C -4.2 °C 1023.9 hPa West 1.6 km/h 1.6 km/h 70% 0 mm 0 W/m2
22:44 0.8 °C -4.3 °C 1023.9 hPa West 1.6 km/h 1.6 km/h 69% 0 mm 0 W/m2
22:50 1 °C -4.4 °C 1023.9 hPa West 1.6 km/h 1.6 km/h 67% 0 mm 0 W/m2
22:52 1.1 °C -4.6 °C 1023.9 hPa West 1.6 km/h 1.6 km/h 66% 0 mm 0 W/m2
22:58 1.2 °C -4.7 °C 1024.3 hPa West 1.6 km/h 4.8 km/h 65% 0 mm 0 W/m2
23:04 1.2 °C -4.9 °C 1024.3 hPa Calm   1.6 km/h 64% 0 mm 0 W/m2
23:10 1.1 °C -5 °C 1024.3 hPa Calm     64% 0 mm 0 W/m2
23:16 1.1 °C -5 °C 1024.3 hPa Calm   3.2 km/h 64% 0 mm 0 W/m2
23:22 1 °C -5.1 °C 1024.3 hPa Calm   1.6 km/h 64% 0 mm 0 W/m2
23:28 0.9 °C -5.1 °C 1024.3 hPa Calm   1.6 km/h 64% 0 mm 0 W/m2
23:34 0.9 °C -5.1 °C 1024.6 hPa West 1.6 km/h 3.2 km/h 64% 0 mm 0 W/m2
23:40 1 °C -5.1 °C 1024.6 hPa West 1.6 km/h 4.8 km/h 64% 0 mm 0 W/m2
23:46 1 °C -5.3 °C 1024.6 hPa West 1.6 km/h 4.8 km/h 63% 0 mm 0 W/m2
23:52 0.9 °C -5.3 °C 1024.6 hPa West 1.6 km/h 1.6 km/h 63% 0 mm 0 W/m2
23:58 0.9 °C -5.3 °C 1024.9 hPa Calm   1.6 km/h 63% 0 mm 0 W/m2
Country Meadow, Clay, NY, USA
Compliments of Weather Underground - 2 mb